When you browse on this site, cookies collect data to enhance your experience and personalize the content and advertising you see.
Visit our Privacy Policy to learn more. By continuing to use the site, you agree to this use of cookies and data.
  • In Austria
  • List of Countries
  • For 7 days
  • Water Temperature
  • Weather Map
  • News
  • Weather Widgets
  • user-avatar
    Login

    Hourly Weather San Miguel de Tucumán

    Today, 29 May, Friday

    Time Temperature Precipitation Wind Pressure Humidity
    00:00 +16°C° 0 mm 1 mps 718 mmHg 60%
    01:00 +16°C° 0 mm 1 mps 718 mmHg 61%
    02:00 +16°C° 0 mm 1 mps 718 mmHg 62%
    03:00 +15°C° 0 mm 1 mps 718 mmHg 63%
    04:00 +15°C° 0 mm 1 mps 718 mmHg 63%
    05:00 +15°C° 0 mm 1 mps 718 mmHg 64%
    06:00 +16°C° 0 mm 1 mps 718 mmHg 62%
    07:00 +16°C° 0 mm 1 mps 719 mmHg 61%
    08:00 +18°C° 0 mm 1 mps 719 mmHg 60%
    09:00 +20°C° 0 mm 1 mps 719 mmHg 54%
    10:00 +23°C° 0 mm 1 mps 719 mmHg 47%
    11:00 +25°C° 0 mm 1 mps 720 mmHg 40%
    12:00 +26°C° 0 mm 1 mps 719 mmHg 39%
    13:00 +27°C° 0 mm 1 mps 718 mmHg 37%
    14:00 +28°C° 0 mm 1 mps 717 mmHg 35%
    15:00 +27°C° 0 mm 1 mps 717 mmHg 40%
    16:00 +26°C° 0 mm 1 mps 717 mmHg 45%
    17:00 +24°C° 0 mm 1 mps 717 mmHg 50%
    18:00 +23°C° 0 mm 1 mps 717 mmHg 55%
    19:00 +21°C° 0 mm 1 mps 717 mmHg 59%
    20:00 +19°C° 0 mm 1 mps 717 mmHg 63%
    21:00 +19°C° 0 mm 1 mps 717 mmHg 64%
    22:00 +19°C° 0 mm 1 mps 718 mmHg 65%
    23:00 +18°C° 0 mm 1 mps 718 mmHg 66%

    Tomorrow, 30 May, Saturday

    Time Temperature Precipitation Wind Pressure Humidity
    00:00 +18°C° 0 mm 1 mps 718 mmHg 67%
    01:00 +18°C° 0 mm 1 mps 718 mmHg 68%
    02:00 +16°C° 0 mm 1 mps 717 mmHg 68%
    03:00 +16°C° 0 mm 1 mps 718 mmHg 68%
    04:00 +16°C° 0 mm 1 mps 718 mmHg 68%
    05:00 +16°C° 0 mm 1 mps 718 mmHg 67%
    06:00 +16°C° 0 mm 1 mps 719 mmHg 67%
    07:00 +16°C° 0 mm 2 mps 720 mmHg 66%
    08:00 +16°C° 0 mm 2 mps 720 mmHg 66%
    09:00 +18°C° 0 mm 2 mps 721 mmHg 60%
    10:00 +20°C° 0 mm 3 mps 721 mmHg 54%
    11:00 +21°C° 0 mm 3 mps 721 mmHg 48%
    12:00 +21°C° 0 mm 3 mps 721 mmHg 49%
    13:00 +21°C° 0 mm 3 mps 720 mmHg 50%
    14:00 +20°C° 0 mm 4 mps 720 mmHg 51%
    15:00 +19°C° 0 mm 3 mps 720 mmHg 55%
    16:00 +18°C° 0 mm 3 mps 720 mmHg 59%
    17:00 +17°C° 0 mm 2 mps 720 mmHg 62%
    18:00 +16°C° 0 mm 2 mps 721 mmHg 63%
    19:00 +16°C° 0 mm 1 mps 722 mmHg 65%
    20:00 +15°C° 0 mm 1 mps 723 mmHg 66%
    21:00 +15°C° 0 mm 1 mps 723 mmHg 66%
    22:00 +15°C° 0 mm 1 mps 723 mmHg 66%
    23:00 +15°C° 0 mm 2 mps 724 mmHg 66%

    Day after tomorrow, 31 May, Sunday

    Time Temperature Precipitation Wind Pressure Humidity
    00:00 +14°C° 0 mm 1 mps 724 mmHg 68%
    01:00 +14°C° 0 mm 1 mps 724 mmHg 71%
    02:00 +13°C° 0 mm 1 mps 724 mmHg 73%
    03:00 +13°C° 0 mm 1 mps 724 mmHg 75%
    04:00 +13°C° 0 mm 1 mps 724 mmHg 76%
    05:00 +12°C° 0 mm 1 mps 724 mmHg 78%
    06:00 +12°C° 0 mm 1 mps 724 mmHg 78%
    07:00 +12°C° 0 mm 1 mps 724 mmHg 78%
    08:00 +12°C° 0 mm 1 mps 725 mmHg 78%
    09:00 +12°C° 0 mm 1 mps 725 mmHg 73%
    10:00 +13°C° 0 mm 1 mps 724 mmHg 69%
    11:00 +13°C° 0 mm 1 mps 724 mmHg 65%
    12:00 +13°C° 0 mm 1 mps 724 mmHg 63%
    13:00 +14°C° 0 mm 1 mps 723 mmHg 60%
    14:00 +14°C° 0 mm 2 mps 722 mmHg 58%
    15:00 +14°C° 0 mm 2 mps 722 mmHg 58%
    16:00 +13°C° 0 mm 1 mps 722 mmHg 59%
    17:00 +13°C° 0 mm 1 mps 722 mmHg 59%
    18:00 +13°C° 0 mm 1 mps 723 mmHg 61%
    19:00 +12°C° 0 mm 1 mps 723 mmHg 62%
    20:00 +11°C° 0 mm 1 mps 724 mmHg 64%
    21:00 +11°C° 0 mm 1 mps 724 mmHg 64%
    22:00 +10°C° 0 mm 0 mps 724 mmHg 65%
    23:00 +10°C° 0 mm 0 mps 725 mmHg 66%

    1 June, Monday

    Time Temperature Precipitation Wind Pressure Humidity
    00:00 +9°C° 0 mm 0 mps 724 mmHg 69%
    01:00 +9°C° 0 mm 0 mps 724 mmHg 72%
    02:00 +8°C° 0 mm 0 mps 724 mmHg 75%
    03:00 +7°C° 0 mm 0 mps 724 mmHg 78%
    04:00 +7°C° 0 mm 0 mps 724 mmHg 81%
    05:00 +6°C° 0 mm 0 mps 724 mmHg 83%
    06:00 +7°C° 0 mm 0 mps 724 mmHg 80%
    07:00 +8°C° 0 mm 0 mps 725 mmHg 76%
    08:00 +9°C° 0 mm 0 mps 725 mmHg 72%
    09:00 +12°C° 0 mm 1 mps 725 mmHg 64%
    10:00 +15°C° 0 mm 1 mps 725 mmHg 55%
    11:00 +18°C° 0 mm 1 mps 726 mmHg 46%
    12:00 +18°C° 0 mm 2 mps 725 mmHg 44%
    13:00 +19°C° 0 mm 2 mps 724 mmHg 42%
    14:00 +20°C° 0 mm 2 mps 723 mmHg 41%
    15:00 +19°C° 0 mm 2 mps 723 mmHg 44%
    16:00 +18°C° 0 mm 2 mps 723 mmHg 48%
    17:00 +17°C° 0 mm 2 mps 723 mmHg 51%
    18:00 +15°C° 0 mm 2 mps 723 mmHg 57%
    19:00 +13°C° 0 mm 1 mps 723 mmHg 62%
    20:00 +11°C° 0 mm 1 mps 723 mmHg 68%
    21:00 +11°C° 0 mm 1 mps 723 mmHg 70%
    22:00 +11°C° 0 mm 1 mps 723 mmHg 71%
    23:00 +10°C° 0 mm 1 mps 723 mmHg 73%

    2 June, Tuesday

    Time Temperature Precipitation Wind Pressure Humidity
    00:00 +10°C° 0 mm 1 mps 723 mmHg 74%
    01:00 +10°C° 0 mm 1 mps 723 mmHg 76%
    02:00 +9°C° 0 mm 1 mps 723 mmHg 78%
    03:00 +9°C° 0 mm 1 mps 722 mmHg 78%
    04:00 +9°C° 0 mm 1 mps 722 mmHg 79%
    05:00 +8°C° 0 mm 1 mps 721 mmHg 79%
    06:00 +9°C° 0 mm 1 mps 721 mmHg 76%
    07:00 +10°C° 0 mm 1 mps 721 mmHg 73%
    08:00 +10°C° 0 mm 1 mps 721 mmHg 70%
    09:00 +13°C° 0 mm 1 mps 721 mmHg 62%
    10:00 +16°C° 0 mm 1 mps 721 mmHg 54%
    11:00 +19°C° 0 mm 1 mps 720 mmHg 46%
    12:00 +20°C° 0 mm 2 mps 719 mmHg 43%
    13:00 +21°C° 0 mm 2 mps 718 mmHg 40%
    14:00 +23°C° 0 mm 2 mps 717 mmHg 38%
    15:00 +21°C° 0 mm 2 mps 717 mmHg 42%
    16:00 +20°C° 0 mm 2 mps 717 mmHg 46%
    17:00 +19°C° 0 mm 2 mps 716 mmHg 50%
    18:00 +17°C° 0 mm 2 mps 716 mmHg 55%
    19:00 +15°C° 0 mm 2 mps 716 mmHg 60%
    20:00 +13°C° 0 mm 2 mps 716 mmHg 66%
    21:00 +13°C° 0 mm 2 mps 716 mmHg 68%
    22:00 +12°C° 0 mm 2 mps 716 mmHg 70%
    23:00 +12°C° 0 mm 1 mps 716 mmHg 72%

    3 June, Wednesday

    Time Temperature Precipitation Wind Pressure Humidity
    00:00 +11°C° 0 mm 1 mps 716 mmHg 73%
    01:00 +11°C° 0 mm 1 mps 715 mmHg 74%
    02:00 +10°C° 0 mm 1 mps 715 mmHg 75%
    03:00 +10°C° 0 mm 1 mps 715 mmHg 76%
    04:00 +9°C° 0 mm 1 mps 715 mmHg 77%
    05:00 +9°C° 0 mm 1 mps 714 mmHg 79%
    06:00 +8°C° 0 mm 0 mps 715 mmHg 77%
    07:00 +9°C° 0 mm 0 mps 715 mmHg 75%
    08:00 +9°C° 0 mm 0 mps 716 mmHg 73%
    09:00 +12°C° 0 mm 1 mps 716 mmHg 66%
    10:00 +15°C° 0 mm 1 mps 716 mmHg 59%
    11:00 +17°C° 0 mm 2 mps 717 mmHg 52%
    12:00 +17°C° 0 mm 2 mps 716 mmHg 50%
    13:00 +18°C° 0 mm 3 mps 716 mmHg 49%
    14:00 +18°C° 0 mm 3 mps 716 mmHg 47%
    15:00 +18°C° 0 mm 3 mps 716 mmHg 50%
    16:00 +17°C° 0 mm 2 mps 716 mmHg 53%
    17:00 +17°C° 0 mm 2 mps 717 mmHg 56%
    18:00 +16°C° 0 mm 2 mps 718 mmHg 58%
    19:00 +15°C° 0 mm 2 mps 719 mmHg 61%
    20:00 +14°C° 0 mm 2 mps 719 mmHg 63%
    21:00 +13°C° 0.1 mm 2 mps 720 mmHg 70%
    22:00 +13°C° 0.1 mm 2 mps 720 mmHg 76%
    23:00 +12°C° 0.1 mm 2 mps 721 mmHg 83%
    Show more